Home   Weather   Elmshorn   Past weeks

Flag for Germany Past Weather in Elmshorn, Schleswig-Holstein, Germany — Yesterday and Last 2 Weeks

43 °F

Partly cloudy.

Feels Like: 43 °F
Forecast: 42 / 51 °F
Wind: 2 mph from Northeast

Location: Hamburg-Fuhlsbuettel

Current Time: Oct 20, 2016 at 11:27:06 PM

Latest Report: Oct 20, 2016 at 10:50 PM

Visibility: N/A

Pressure: 29.98 "Hg

Humidity: 100%

Dew Point: 43 °F

Location of ElmshornLocation

Past Weather in Elmshorn — Graph


Elmshorn Temperature Yesterday

Maximum temperature yesterday: 50 °F (at 12:20 AM)
Minimum temperature yesterday: 41 °F (at 9:20 PM)
Average temperature yesterday: 46 °F

High & Low Weather Summary for the Past Weeks

High61 °F (Oct 18, 2:20 PM)100% (Oct 7, 9:20 AM)30.48 "Hg (Oct 7, 9:20 AM)
Low36 °F (Oct 9, 2:20 AM)58% (Oct 6, 1:20 AM)29.80 "Hg (Oct 15, 5:50 AM)
Average48 °F88%30.14 "Hg
* Reported Oct 5 9:20 PM — Oct 20 9:50 PM, Elmshorn, Weather by CustomWeather, © 2016

Note: Actual official high and low records may vary slightly from our data, if they occured in-between our weather recording intervals... More about our weather records


Elmshorn Weather History for the Previous 24 Hours

Scroll right to see more
Time TempWeatherWind HumidityBarometerVisibility
9:50 PM
Thu, Oct 20
45 °FPassing clouds.3 mph93%29.98 "HgN/A
9:20 PM45 °FPassing clouds.5 mph93%29.98 "HgN/A
8:50 PM46 °FPassing clouds.6 mph87%29.98 "HgN/A
8:20 PM46 °FClear.6 mph87%29.98 "Hg10 mi
7:50 PM46 °FPassing clouds.6 mph82%29.98 "HgN/A
7:20 PM46 °FPassing clouds.3 mph87%29.98 "HgN/A
6:50 PM46 °FClear.5 mph87%29.98 "Hg10 mi
6:20 PM48 °FPartly cloudy.5 mph82%29.98 "HgN/A
5:50 PM48 °FBroken clouds.5 mph82%29.98 "HgN/A
5:20 PM48 °FPartly sunny.7 mph82%29.98 "HgN/A
4:50 PM48 °FPartly sunny.8 mph82%29.95 "HgN/A
4:20 PM48 °FPartly sunny.7 mph82%29.95 "HgN/A
3:50 PM48 °FPartly sunny.9 mph82%29.95 "HgN/A
3:20 PM48 °FBroken clouds.12 mph82%29.95 "HgN/A
2:50 PM48 °FBroken clouds.10 mph82%29.95 "HgN/A
2:20 PM48 °FBroken clouds.9 mph82%29.95 "HgN/A
1:50 PM46 °FPartly sunny.10 mph87%29.95 "HgN/A
1:20 PM46 °FPartly sunny.10 mph87%29.95 "HgN/A
12:50 PM46 °FPartly sunny.10 mph87%29.95 "HgN/A
12:20 PM46 °FPartly sunny.12 mph87%29.95 "HgN/A
11:50 AM46 °FOvercast.12 mph87%29.92 "HgN/A
11:20 AM46 °FBroken clouds.10 mph87%29.92 "HgN/A
10:50 AM46 °FBroken clouds.12 mph93%29.92 "HgN/A
10:20 AM46 °FPartly sunny.8 mph93%29.92 "HgN/A
9:50 AM46 °FDrizzle. Partly sunny.9 mph93%29.92 "Hg4 mi
9:20 AM46 °FLow clouds.7 mph93%29.89 "Hg4 mi
8:50 AM45 °FPartly sunny.7 mph100%29.89 "Hg4 mi
8:20 AM45 °FLight rain. Low clouds.6 mph100%29.89 "Hg4 mi
7:50 AM45 °FLow clouds.6 mph100%29.89 "Hg4 mi
7:20 AM45 °FLow clouds.6 mph100%29.86 "Hg4 mi
6:50 AM45 °FPassing clouds.6 mph93%29.86 "Hg4 mi
6:20 AM43 °FFog.3 mph100%29.86 "Hg3 mi
5:50 AM43 °FFog.3 mph100%29.86 "Hg2 mi
5:20 AM43 °FFog.5 mph100%29.86 "Hg1 mi
4:50 AM43 °FFog.3 mph100%29.86 "Hg1 mi
4:20 AM43 °FFog.5 mph100%29.86 "Hg1 mi
3:50 AM41 °FFog.3 mph100%29.86 "Hg0 mi
3:20 AM41 °FFog.7 mph100%29.89 "Hg0 mi
2:50 AM43 °FFog.5 mph93%29.89 "Hg0 mi
2:20 AM43 °FFog.3 mph100%29.89 "Hg0 mi
1:50 AM43 °FFog.3 mph100%29.89 "Hg1 mi
1:20 AM43 °FFog.5 mph100%29.89 "Hg1 mi
12:50 AM39 °FFog.2 mph100%29.89 "Hg1 mi
12:20 AM43 °FFog.2 mph93%29.89 "Hg3 mi
11:50 PM
Wed, Oct 19
43 °FPassing clouds.3 mph93%29.89 "Hg4 mi
11:20 PM45 °FFog.3 mph93%29.89 "Hg3 mi
Weather by CustomWeather, © 2016

See weather overviewHow to use our weather pages